DTUSAT 1 27842U 03031C 12137.04571783 .00000169 00000-0 97557-4 0 4009 2 27842 98.6945 146.3610 0008724 297.4790 62.5496 14.21280459460442 CUTE-1 (CO-55) 1 27844U 03031E 12135.54659447 .00000239 00000-0 13058-3 0 3738 2 27844 98.7027 144.4147 0009616 326.0483 34.0090 14.21011331460118 QUAKESAT 1 27845U 03031F 12137.08449812 .00000312 00000-0 16501-3 0 4080 2 27845 98.7111 145.7393 0008682 343.5346 16.5547 14.20736800460200 AAU CUBESAT 1 27846U 03031G 12135.99026865 .00000165 00000-0 95567-4 0 2790 2 27846 98.6940 145.3100 0008942 303.4540 56.5792 14.21278896460294 CANX-1 1 27847U 03031H 12136.01625928 .00000159 00000-0 93055-4 0 2872 2 27847 98.6912 145.3090 0008344 301.3734 58.6611 14.21249472460246 CUBESAT XI-IV (CO-57) 1 27848U 03031J 12135.68522316 .00000200 00000-0 11293-3 0 3244 2 27848 98.7115 143.8708 0009570 332.0969 27.9697 14.20764339460072 UWE-1 1 28892U 05043C 12135.64221287 .00000593 00000-0 13098-3 0 2315 2 28892 97.9199 2.2065 0016113 256.2610 103.6795 14.60577116348873 CUBESAT XI-V (CO-58) 1 28895U 05043F 12137.09126176 .00000586 00000-0 12960-3 0 1756 2 28895 97.9192 4.7680 0016634 251.2915 108.6518 14.60603534348973 NCUBE-2 1 28897U 05043H 12135.56816366 .00000600 00000-0 13177-3 0 7490 2 28897 97.9215 3.2167 0015425 256.9771 102.9718 14.60833740341060 CSTB1 1 31122U 07012F 12136.99193728 .00000978 00000-0 22055-3 0 5166 2 31122 97.8697 155.7103 0083824 194.6354 165.2427 14.56303822269914 MAST 1 31126U 07012K 12135.98758061 .00000484 00000-0 11841-3 0 4606 2 31126 97.8715 149.0290 0092860 213.7016 145.8247 14.54133912269441 LIBERTAD-1 1 31128U 07012M 12136.92100020 -.00000046 00000-0 00000+0 0 5268 2 31128 97.8824 146.2242 0100762 223.9278 135.3880 14.52841971269293 POLYSAT CP3 1 31129U 07012N 12135.96011522 .00000617 00000-0 15040-3 0 1689 2 31129 97.8830 145.6942 0100051 226.1675 133.1213 14.53035073269158 CAPE1 1 31130U 07012P 12135.44459145 .00000632 00000-0 15417-3 0 4689 2 31130 97.8820 144.9215 0100757 228.2752 130.9787 14.52905679268872 POLYSAT CP4 1 31132U 07012Q 12135.57695708 .00000664 00000-0 15404-3 0 4751 2 31132 97.8689 153.6839 0084034 199.4382 160.3601 14.55965078269564 NTS (CANX-6) 1 32784U 08021B 12135.64540760 .00000785 00000-0 10458-3 0 3107 2 32784 97.8022 196.5612 0015774 164.9337 195.2359 14.82269907218723 CUTE-1.7+APD II (CO-65) 1 32785U 08021C 12136.65448291 .00001002 00000-0 12982-3 0 3080 2 32785 97.8021 198.4730 0014737 163.9659 196.2036 14.82908175218943 COMPASS-1 1 32787U 08021E 12137.10793403 .00001897 00000-0 23444-3 0 3033 2 32787 97.8029 199.1517 0015539 161.7050 198.4761 14.83879292219056 AAUSAT-II 1 32788U 08021F 12136.81476678 .00003134 00000-0 38025-3 0 2938 2 32788 97.8047 199.2271 0015144 161.5405 198.6396 14.84195053219030 DELFI-C3 (DO-64) 1 32789U 08021G 12135.68157492 .00004303 00000-0 50252-3 0 3108 2 32789 97.8143 200.0152 0015143 163.3820 196.7885 14.85585160218907 CANX-2 1 32790U 08021H 12136.68861990 .00001527 00000-0 19483-3 0 3023 2 32790 97.7988 198.2016 0015448 164.6028 195.5658 14.82807877218920 SEEDS II (CO-66) 1 32791U 08021J 12135.66850111 .00001869 00000-0 23425-3 0 2933 2 32791 97.8003 197.5111 0016024 165.2727 194.8951 14.83314232218772 SWISSCUBE 1 35932U 09051B 12137.11209500 .00005318 00000-0 12986-2 0 5620 2 35932 98.3387 240.1736 0006693 194.8612 165.2003 14.52999426140205 BEESAT 1 35933U 09051C 12137.23904018 .00007932 00000-0 19109-2 0 7473 2 35933 98.3416 240.7183 0006767 205.6920 154.3399 14.53489835140279 UWE-2 1 35934U 09051D 12136.33895957 .00003351 00000-0 81574-3 0 2769 2 35934 98.3322 239.4582 0006578 216.1380 143.9373 14.53390859140140 ITUPSAT 1 1 35935U 09051E 12137.20495119 .00001960 00000-0 48744-3 0 8989 2 35935 98.3393 240.8253 0008814 196.0957 163.9840 14.52843231140205 TISAT 1 1 36799U 10035E 12137.13298607 .00001811 00000-0 23575-3 0 9753 2 36799 98.0627 213.2330 0013502 277.5696 82.3986 14.81846818 99749 DICE-F 1 37851U 11061B 12136.55165409 .00005808 00000-0 46695-3 0 1762 2 37851 101.7210 161.9635 0249251 83.9331 279.0200 14.79462858 29565 DICE-Y 1 37852U 11061C 12136.53577435 .00006547 00000-0 52328-3 0 1779 2 37852 101.7222 161.9892 0248497 83.8421 279.1024 14.79681780 29566 RAX-2 1 37853U 11061D 12136.87056206 .00006727 00000-0 53788-3 0 1776 2 37853 101.7148 162.3467 0248219 83.0466 279.8896 14.79691251 29614 AUBIESAT-1 1 37854U 11061E 12136.56296781 .00007075 00000-0 55640-3 0 1784 2 37854 101.7178 162.1140 0249412 83.5661 279.3865 14.80046417 29567 M-CUBED & EXP-1 PRIME 1 37855U 11061F 12137.11447068 .00006877 00000-0 54290-3 0 1771 2 37855 101.7189 162.8766 0249508 81.8074 281.1337 14.79924428 29645 E-ST@R 1 38079U 12006C 12137.11867570 .00026436 00000-0 64240-3 0 2280 2 38079 69.4885 28.8740 0752410 288.2330 63.8162 14.13293486 13059 2012-006D 1 38080U 12006D 12137.05950133 .00024894 00000-0 62020-3 0 2216 2 38080 69.4805 29.0235 0750780 288.3755 63.6933 14.13145245 13047 MASAT 1 1 38081U 12006E 12137.13624875 .00026740 00000-0 66226-3 0 2299 2 38081 69.4870 28.8874 0751944 288.2842 63.7782 14.13004917 13059 XATCOBEO 1 38082U 12006F 12137.10030865 .00031055 00000-0 76961-3 0 2435 2 38082 69.4971 28.7921 0745711 288.1337 63.9921 14.14295247 13053 2012-006G 1 38083U 12006G 12137.03969352 .00029708 00000-0 74058-3 0 2651 2 38083 69.4951 28.9860 0747241 288.3074 63.8169 14.13856377 13044 2012-006H 1 38084U 12006H 12137.01286761 .00025520 00000-0 63368-3 0 2263 2 38084 69.4964 29.2558 0753999 288.4575 63.6037 14.12522802 13034 2012-006J 1 38085U 12006J 12137.08867691 .00025251 00000-0 62403-3 0 2145 2 38085 69.4968 29.1037 0755216 288.3930 63.6457 14.12361406 13046